Lapse_Rate
6.9 6.8 6.7 6.7 6.9 7.0 7.0 7.1 7.1 6.8 6.5 6.3 6.3 6.2 6.4 6.5 6.4 6.4 6.6 6.6 6.5 6.5 6.4 6.4 6.3 6.3 6.2 6.3 6.2 6.3 6.3 6.2 6.1 6.1 6.2 6.3 6.3 6.3 6.3 6.2 6.2 6.3 6.5 6.6 6.5 6.5 6.4 6.3 6.3
6.9 6.8 6.7 6.8 6.7 7.3 7.3 7.4 7.3 7.0 6.9 6.7 6.3 6.2 6.2 6.4 6.5 6.7 6.7 6.5 6.3 6.2 6.3 6.3 6.3 6.4 6.4 6.4 6.4 6.4 6.3 6.3 6.3 6.4 6.3 6.3 6.4 6.4 6.3 6.4 6.5 6.5 6.4 6.4 6.5 6.6 6.7 6.6 6.5
7.0 6.9 6.8 6.7 6.7 7.4 7.3 7.5 7.3 7.2 7.0 6.8 6.7 6.5 6.5 6.7 6.6 6.6 6.7 6.5 6.4 6.3 6.2 6.1 6.1 6.2 6.2 6.2 6.1 6.0 6.0 6.1 6.2 6.2 6.3 6.3 6.3 6.3 6.2 6.2 6.2 6.4 6.5 6.5 6.4 6.4 6.5 6.5 6.6
7.0 6.9 6.8 6.7 6.8 7.2 7.3 7.3 7.3 7.1 7.0 6.8 6.7 6.8 6.8 6.8 6.8 6.7 6.6 6.5 6.4 6.4 6.5 6.4 6.3 6.3 6.2 6.2 6.1 6.1 6.1 6.0 6.0 6.0 6.0 6.1 6.2 6.2 6.2 6.3 6.4 6.3 6.4 6.4 6.4 6.5 6.6 6.4 6.5
7.0 6.9 6.8 6.9 7.0 7.2 7.3 7.2 7.2 7.0 7.0 6.8 6.8 6.8 6.8 6.8 6.8 6.8 6.6 6.5 6.4 6.4 6.2 6.1 6.1 6.1 6.0 6.1 6.1 6.1 6.1 6.0 6.0 6.1 6.2 6.2 6.3 6.3 6.4 6.5 6.5 6.5 6.5 6.4 6.4 6.4 6.4 6.3 6.3
7.0 6.9 6.8 6.9 7.1 7.2 7.2 7.2 7.1 7.1 7.0 6.8 6.8 6.8 6.8 6.8 6.8 6.7 6.6 6.6 6.4 6.2 6.1 6.0 5.8 5.6 5.7 5.9 6.0 5.9 5.8 5.7 5.8 5.8 6.0 6.1 6.1 6.2 6.2 6.3 6.4 6.4 6.5 6.5 6.5 6.5 6.5 6.6 6.5
7.0 6.9 6.8 7.0 7.0 7.1 6.9 6.9 7.0 6.8 6.8 6.7 6.6 6.7 6.8 6.6 6.6 6.5 6.5 6.4 6.3 6.2 6.0 5.8 5.6 5.5 5.4 5.5 5.5 5.6 5.5 5.6 5.4 5.4 5.5 5.6 5.6 5.5 5.5 5.6 5.6 5.9 6.1 6.3 6.3 6.6 6.7 6.6 6.5
6.8 6.8 7.0 7.1 7.0 6.9 6.8 6.7 6.7 6.7 6.8 6.7 6.5 6.6 6.6 6.6 6.6 6.6 6.5 6.3 6.2 6.0 5.9 5.8 5.6 5.6 5.5 5.4 5.3 5.3 5.3 5.2 5.1 4.9 5.0 5.0 5.0 5.0 5.1 5.2 5.3 5.4 5.6 5.6 5.8 6.2 6.4 6.5 6.7
6.8 6.8 7.0 7.0 7.0 7.0 6.9 6.8 6.6 6.5 6.4 6.4 6.4 6.4 6.4 6.6 6.6 6.6 6.5 6.4 6.2 6.0 5.9 5.8 5.7 5.5 5.4 5.3 5.2 5.2 5.1 5.2 5.0 4.8 4.8 4.7 4.7 4.8 4.9 5.0 5.2 5.4 5.5 5.6 5.7 5.7 5.7 5.9 6.1
6.9 6.8 6.8 6.8 6.8 7.0 7.0 6.9 6.7 6.7 6.6 6.7 6.5 6.2 6.2 6.4 6.6 6.6 6.5 6.3 6.2 6.0 5.9 5.8 5.7 5.5 5.2 5.1 5.1 5.0 4.9 5.0 4.8 4.7 4.4 4.4 4.3 4.5 4.7 4.9 5.0 5.1 5.0 5.2 5.5 5.7 5.7 5.9 6.0
7.1 7.1 7.0 6.9 6.8 6.9 7.0 6.9 6.9 6.8 7.1 6.8 6.8 6.6 6.6 6.6 6.6 6.4 6.2 6.0 5.9 5.9 5.8 5.6 5.5 5.3 5.3 5.2 5.0 4.6 4.6 4.7 4.6 4.5 4.4 4.4 4.6 4.7 4.8 4.8 4.9 4.8 4.7 5.0 5.0 5.1 5.3 5.4 5.6
7.2 7.2 7.3 7.2 7.1 7.0 7.0 6.9 7.0 7.1 7.0 6.9 7.0 7.0 7.0 6.9 6.6 6.3 6.1 6.0 5.9 5.8 5.6 5.4 5.4 5.3 5.2 5.1 4.9 4.7 4.7 4.7 4.7 4.7 4.7 4.6 4.8 4.9 4.9 4.8 4.7 4.7 4.7 4.8 5.0 5.1 5.2 5.2 5.3
7.3 7.4 7.5 7.4 7.3 7.1 7.1 7.1 7.2 7.7 7.1 7.1 7.2 7.2 7.1 7.2 7.0 6.6 6.2 6.1 5.8 5.4 5.3 5.2 5.1 5.1 5.1 4.9 4.7 4.6 4.5 4.6 4.7 4.8 4.7 4.7 4.7 4.7 4.6 4.5 4.6 4.7 4.9 5.1 5.2 5.4 5.5 5.5 5.5
7.2 7.3 7.4 7.5 7.4 7.3 7.0 7.1 7.3 7.7 7.1 7.2 7.3 7.2 7.2 7.2 6.9 6.9 6.6 6.2 5.7 5.3 5.2 5.2 5.1 5.0 4.8 4.7 4.7 4.6 4.5 4.5 4.5 4.5 4.5 4.5 4.5 4.6 4.7 4.6 4.5 4.7 5.0 5.3 5.4 5.4 5.4 5.5 5.8
7.1 7.0 7.1 7.4 7.3 7.1 7.1 7.0 8.1 7.4 7.4 7.3 7.3 7.1 7.0 7.0 7.0 6.9 6.6 6.3 5.9 5.6 5.3 5.1 4.9 4.8 4.7 4.6 4.5 4.4 4.4 4.3 4.3 4.3 4.4 4.5 4.5 4.5 4.5 4.4 4.5 4.8 5.1 5.1 5.0 5.2 5.4 5.7 6.0
6.8 6.8 7.0 7.2 7.2 7.1 6.8 7.5 7.7 7.6 7.5 7.3 7.5 7.4 7.4 7.3 7.3 7.2 6.8 6.4 5.9 5.6 5.4 5.1 4.9 4.8 4.7 4.7 4.6 4.5 4.5 4.4 4.4 4.4 4.4 4.4 4.3 4.3 4.2 4.2 4.4 4.8 4.8 4.7 4.7 5.0 5.3 5.7 6.1
6.7 6.7 6.7 6.9 6.9 6.9 6.7 7.4 7.7 7.2 7.2 7.4 7.6 7.6 7.5 7.4 7.5 7.2 6.8 6.8 6.5 6.2 6.0 5.7 5.2 4.8 4.6 4.5 4.3 4.4 4.4 4.3 4.3 4.3 4.2 4.1 4.1 4.1 4.1 4.1 4.4 4.4 4.4 4.3 4.4 4.7 5.2 5.6 6.1
7.1 6.8 6.6 6.8 6.6 6.5 6.4 7.2 7.6 7.4 7.2 7.5 7.8 7.6 7.5 7.6 7.6 6.8 7.0 7.1 6.9 6.8 6.5 6.3 5.7 5.2 4.8 4.4 4.4 4.4 4.2 4.1 4.2 4.1 3.9 3.9 4.1 4.1 3.9 4.1 4.4 4.3 4.3 4.4 4.3 4.8 5.2 5.6 6.0
6.9 6.7 6.8 7.2 6.9 6.2 6.7 6.5 7.3 7.4 7.3 7.8 8.0 7.8 7.7 7.9 7.3 7.3 7.1 7.1 7.1 7.0 6.8 6.4 5.8 5.4 5.2 5.0 4.6 4.3 4.2 4.3 4.3 4.1 4.1 4.2 4.1 3.8 3.8 4.1 4.2 4.5 4.5 4.6 4.7 4.9 5.2 5.4 5.8
6.9 6.7 7.4 7.4 7.1 6.4 6.5 6.5 6.9 7.0 7.7 8.0 8.0 8.1 7.8 7.5 7.2 7.2 7.1 7.2 6.9 6.8 6.8 6.5 6.1 5.7 5.2 4.9 4.6 4.5 4.4 4.4 4.3 4.1 3.9 3.9 3.7 3.7 3.7 4.0 4.2 4.3 4.4 4.4 4.4 4.9 5.1 5.3 5.5
7.3 7.3 7.5 7.0 6.9 6.5 6.0 5.8 6.2 6.5 7.1 7.8 8.2 8.0 8.0 7.8 7.6 7.0 7.1 6.8 6.7 6.6 6.4 6.2 5.9 5.6 5.3 5.1 4.9 4.6 4.4 4.4 4.2 4.0 3.9 3.8 3.7 3.6 3.6 3.8 4.0 4.0 4.0 4.2 4.4 4.7 5.1 5.4 5.6
7.0 7.8 7.3 6.9 6.3 6.0 5.7 5.2 5.6 6.3 6.7 6.9 7.9 8.3 8.4 7.8 7.3 7.0 6.9 6.6 6.7 6.6 6.3 6.1 5.8 5.7 5.5 5.3 4.9 4.8 4.6 4.4 4.1 4.0 3.9 3.8 3.6 3.6 3.5 3.8 3.7 3.6 3.7 4.0 4.5 4.8 5.1 5.3 5.6
7.2 7.5 7.1 6.6 6.1 5.1 5.1 4.2 5.5 6.1 6.0 6.5 7.5 7.8 8.0 7.9 7.5 7.2 7.0 6.7 6.8 6.5 5.9 5.8 6.0 5.9 5.6 5.1 4.7 4.7 4.5 4.4 4.2 4.1 3.8 3.8 3.8 3.7 3.5 3.4 3.3 3.4 3.9 4.2 4.5 4.8 5.1 5.2 5.3
7.2 7.0 6.8 6.2 5.8 4.5 5.6 5.2 5.7 6.3 6.2 6.5 7.1 7.8 7.4 7.5 7.3 7.2 7.0 6.6 6.6 6.5 6.0 5.8 5.9 5.6 5.3 4.9 4.7 4.6 4.5 4.4 4.3 3.8 3.7 3.5 3.4 3.5 3.3 3.2 3.4 3.5 3.7 4.2 4.4 4.9 5.1 5.1 5.2
7.1 6.4 6.7 6.4 5.5 5.9 6.5 5.1 5.3 6.0 6.3 6.4 7.2 7.0 7.2 7.4 7.4 7.3 7.2 6.7 6.4 6.1 5.7 5.7 5.6 5.3 5.2 5.0 4.9 4.5 4.4 4.3 4.0 3.7 3.6 3.5 3.5 3.5 3.4 3.1 3.2 3.3 3.7 4.1 4.3 4.7 5.1 5.1 5.2
7.0 6.5 6.9 6.4 6.6 6.1 5.6 3.7 5.5 5.8 6.1 6.8 6.7 6.7 7.1 7.4 7.2 7.2 7.1 7.1 6.7 6.0 5.5 5.3 5.3 4.9 4.8 4.7 4.5 4.3 4.1 3.8 3.7 3.5 3.4 3.5 3.6 3.4 3.2 2.9 2.8 3.1 4.0 4.4 4.5 4.7 5.0 5.0 4.8
6.2 6.1 7.0 6.5 6.4 4.3 5.5 5.5 5.5 6.0 6.3 6.8 6.9 6.7 7.7 7.6 7.0 7.0 7.5 7.6 6.5 5.8 5.3 5.0 5.1 4.8 4.6 4.4 4.2 3.9 3.8 3.6 3.4 3.4 3.5 3.5 3.4 3.3 2.6 2.6 2.8 3.4 3.8 4.3 4.5 4.6 4.9 4.9 4.6
7.1 6.6 5.9 6.3 6.3 6.2 5.4 5.6 6.0 6.7 6.5 6.7 7.3 6.9 7.1 7.3 7.6 7.4 7.5 6.6 6.1 5.6 5.1 4.7 4.8 4.6 4.4 4.2 4.1 3.9 3.7 3.6 3.6 3.6 3.4 3.4 3.3 2.9 2.7 2.5 2.7 3.3 3.9 4.3 4.3 4.4 4.8 4.7 4.2
6.9 6.0 5.9 6.4 6.2 6.7 5.9 5.0 5.9 6.6 6.7 6.6 6.8 6.5 6.7 7.2 7.5 7.2 6.8 6.6 6.3 5.6 4.9 4.6 4.8 4.6 4.4 4.2 4.1 3.9 3.7 3.7 3.6 3.4 3.4 3.4 2.9 2.6 2.4 2.5 3.0 3.6 4.1 4.3 4.5 4.5 4.5 4.3 4.0
5.6 6.2 6.4 5.9 5.8 6.1 6.7 4.3 5.5 6.6 6.4 6.8 6.2 6.3 6.2 6.0 6.8 6.2 6.0 5.9 5.7 5.2 4.7 4.6 4.7 4.8 4.7 4.4 4.1 3.8 3.7 3.6 3.5 3.5 3.3 2.9 2.7 2.6 2.6 2.8 3.3 3.8 4.0 4.3 4.4 4.5 4.6 4.1 3.9
Wind_Speed
4 2 1 3 4 3 4 5 1 7 6 2 3 5 9 3 3 1 5 4 3 4 6 9 12 11 11 12 14 15 16 17 16 14 15 15 15 16 17 16 17 15 14 13 14 14 12 11 10
4 2 2 1 4 4 3 6 9 8 5 9 6 4 4 2 2 6 6 4 4 5 5 8 11 12 12 13 14 14 15 15 16 15 14 14 15 14 14 13 13 14 13 14 13 14 17 16 14
3 1 2 2 3 5 1 8 8 6 12 5 4 2 1 1 4 8 5 7 7 6 5 10 10 11 12 13 14 14 15 15 14 14 13 12 13 12 12 12 12 12 12 11 12 13 14 16 15
2 3 2 5 5 2 2 8 8 12 5 4 1 3 2 2 5 5 10 9 8 8 8 11 11 12 12 13 14 15 16 16 16 15 15 14 15 15 15 14 14 13 13 14 15 14 14 14 14
1 2 3 3 4 2 3 5 11 14 7 7 6 2 2 4 7 11 10 9 8 9 8 9 10 11 12 13 13 14 14 15 16 16 16 15 15 16 15 15 16 16 16 16 16 15 15 16 14
3 2 4 6 4 3 3 7 10 12 5 5 5 3 1 7 13 11 10 9 9 9 8 7 10 12 12 12 13 13 14 15 15 15 16 16 15 16 16 15 15 14 14 14 16 16 16 16 17
3 3 2 2 3 3 4 8 10 13 8 6 1 4 3 12 13 12 11 10 9 8 7 7 7 10 12 12 13 13 13 13 13 13 13 13 14 14 15 14 16 16 15 15 13 14 14 15 17
1 2 3 3 3 3 6 9 2 11 10 2 4 6 4 14 16 13 11 9 8 8 7 7 7 7 8 9 11 12 13 12 12 13 12 11 11 13 15 16 17 16 16 16 17 17 16 16 14
1 3 4 4 5 3 8 9 4 1 4 5 7 4 2 15 18 14 12 11 10 7 8 8 8 7 7 7 7 8 10 11 11 11 13 11 12 13 13 13 15 16 16 16 17 16 16 16 12
3 3 3 1 3 3 7 9 7 6 8 8 8 10 5 19 19 18 17 15 14 12 9 8 8 7 7 6 5 7 7 9 10 11 11 12 11 12 12 11 13 13 16 13 16 17 16 14 14
3 3 0 2 5 4 4 5 6 7 11 13 15 14 15 21 20 19 18 16 15 12 8 7 8 7 6 5 5 4 5 5 6 10 10 9 8 9 9 10 12 13 13 13 14 12 12 15 14
4 4 3 1 4 4 4 4 5 14 16 1 10 7 18 22 22 22 20 18 16 14 11 8 8 8 7 6 5 5 4 5 6 7 8 7 7 8 9 10 11 12 13 13 14 12 13 13 14
5 4 5 4 5 5 3 9 8 15 17 11 5 10 18 20 22 20 18 17 16 15 12 11 10 9 9 7 6 5 5 5 5 5 7 8 7 8 9 10 10 11 12 12 12 12 13 13 13
3 4 5 5 5 4 6 5 3 6 6 14 12 15 17 21 23 19 20 20 18 15 14 12 10 10 9 7 6 6 5 4 4 4 5 7 7 7 7 8 9 10 12 13 13 13 13 12 15
0 6 6 10 6 4 4 9 12 18 7 10 14 15 16 19 19 25 22 21 19 16 16 15 12 12 10 8 6 5 5 4 3 2 3 3 4 6 8 8 9 11 13 14 13 14 13 10 13
3 3 5 5 8 2 5 14 13 6 10 15 15 15 16 20 23 21 20 20 19 17 16 14 10 11 10 8 6 5 5 4 2 1 1 1 3 5 7 7 8 12 12 12 11 8 9 10 10
4 10 9 4 11 5 11 15 4 3 8 15 16 16 16 17 20 22 22 21 20 19 18 16 14 12 10 9 6 6 5 4 2 1 2 3 5 6 7 7 8 11 10 9 8 8 9 10 11
12 8 8 10 6 8 10 22 23 16 12 22 23 20 18 19 24 22 22 21 19 19 18 17 13 14 11 9 7 6 5 4 2 4 4 3 3 4 6 7 8 10 7 6 7 9 8 10 11
7 8 17 14 4 5 18 22 25 22 19 24 24 21 20 21 18 19 20 21 20 19 18 17 16 14 10 8 6 4 4 4 4 6 5 5 4 5 6 7 9 9 6 8 8 8 10 9 10
10 13 22 14 3 8 15 22 22 22 25 24 25 24 21 18 16 18 20 20 21 20 19 18 17 16 12 8 6 3 3 3 4 5 6 5 6 6 8 8 8 9 6 8 8 8 8 8 6
12 18 17 11 4 8 10 16 10 8 15 20 23 24 19 17 17 17 19 22 21 22 21 19 18 16 13 11 6 3 2 3 4 5 3 4 6 8 9 10 10 9 7 6 8 8 10 8 8
14 8 12 8 5 12 3 18 13 14 14 12 22 14 14 15 14 15 19 22 24 22 18 19 18 16 13 14 10 10 7 6 4 3 4 6 9 10 10 10 11 9 8 8 7 7 8 9 10
6 2 4 3 8 6 12 10 9 2 6 17 17 16 12 13 14 17 19 20 19 19 18 18 18 15 13 13 12 9 9 6 4 4 7 7 8 9 11 11 11 9 8 9 10 10 10 8 9
8 3 1 2 4 10 18 18 5 5 7 8 13 14 9 10 12 13 14 15 17 17 18 18 19 18 15 15 14 13 12 9 6 6 5 5 5 6 11 11 10 11 10 10 9 11 13 12 12
4 3 5 6 6 15 2 8 15 14 12 14 18 15 5 8 9 11 14 15 16 19 19 19 20 20 18 17 15 14 12 10 9 7 5 6 6 7 8 9 9 8 11 13 13 12 14 14 13
11 6 6 14 15 25 5 11 11 11 16 20 7 10 4 7 8 10 13 15 17 19 22 23 22 20 20 18 16 12 11 6 6 7 6 6 7 7 10 10 12 13 14 14 14 11 12 14 13
8 8 2 6 2 9 13 21 7 9 13 8 15 11 15 12 10 12 13 16 17 20 22 23 21 20 20 18 13 11 9 9 7 7 7 7 7 7 10 12 11 12 13 14 14 12 15 15 15
3 3 4 3 7 19 27 30 19 12 15 12 11 13 15 9 12 12 13 15 16 18 19 22 21 21 20 17 13 10 10 9 8 7 8 8 8 10 10 10 11 12 12 13 15 14 15 16 13
5 6 5 2 4 10 20 12 4 5 4 8 13 13 9 9 12 12 13 14 15 15 18 19 20 20 18 16 13 11 9 8 7 7 6 7 9 9 9 10 11 12 13 14 15 16 18 18 18
2 10 15 8 8 11 11 28 3 3 5 4 3 5 7 9 12 11 12 14 15 17 18 19 18 18 17 14 12 10 9 8 7 6 7 7 8 8 9 10 12 13 14 14 16 17 16 18 19
Wind_Direction
131 178 266 236 229 224 156 179 179 164 176 125 141 206 210 356 211 321 121 65 77 59 36 50 49 54 50 50 53 56 61 59 54 52 50 44 39 36 32 30 24 16 3 350 341 337 337 348 345
135 165 227 271 249 241 149 165 196 170 128 132 136 143 197 196 118 127 155 103 97 74 57 61 52 59 62 65 66 62 57 53 50 45 44 42 43 42 37 28 21 17 7 359 353 347 345 347 345
137 258 250 259 263 259 238 187 173 138 142 161 150 271 173 148 142 139 106 126 126 101 84 71 65 65 65 66 68 66 65 64 63 62 58 51 52 45 39 39 30 27 19 6 1 352 353 352 345
201 167 151 245 243 241 282 180 160 145 183 218 223 200 192 28 150 140 131 132 127 101 84 74 70 69 67 65 66 62 57 55 54 52 52 50 50 41 35 29 27 22 15 11 5 1 353 345 341
212 222 224 236 229 251 221 187 174 171 167 179 186 187 215 163 126 135 138 133 124 108 93 87 75 72 70 67 65 63 60 55 52 48 46 45 44 39 34 28 22 14 10 6 359 350 346 348 345
205 282 237 247 223 221 209 186 182 192 179 146 201 195 169 136 155 152 149 132 122 117 109 103 77 74 73 72 68 62 61 58 52 48 45 43 40 36 31 25 22 16 10 4 357 351 347 344 336
257 228 275 264 268 243 198 166 201 203 206 212 15 229 110 173 165 160 155 145 139 129 126 114 108 93 81 76 74 72 72 67 62 54 48 44 40 36 29 22 16 9 3 360 354 351 353 349 346
215 240 203 214 229 246 151 167 234 206 216 73 199 232 211 188 166 160 160 160 157 150 140 131 132 120 106 90 84 82 77 71 63 53 45 42 41 29 24 18 12 7 3 0 357 352 349 340 335
257 240 237 224 195 153 158 194 157 143 200 204 202 246 78 155 163 167 171 175 171 169 163 153 143 134 123 111 91 84 73 63 51 41 37 39 33 23 17 13 2 4 1 356 356 353 345 338 331
241 256 257 215 209 223 185 209 181 192 199 225 225 214 163 164 177 183 188 188 189 179 172 165 156 142 136 121 107 82 71 62 52 41 34 32 27 21 10 4 2 0 355 349 351 350 340 343 336
163 258 230 235 234 230 219 216 192 226 229 228 219 208 183 181 190 198 202 200 194 183 175 174 162 145 140 132 114 97 85 77 61 47 36 30 25 15 11 2 359 353 356 354 344 341 344 336 329
220 229 227 204 191 187 217 152 217 224 243 274 238 207 182 190 197 202 203 199 190 186 181 170 164 159 149 147 139 129 111 86 67 54 37 28 21 12 8 4 354 351 349 344 345 340 331 327 325
224 205 212 230 207 226 167 232 252 244 244 227 212 189 194 200 204 205 204 201 193 191 180 177 174 170 164 162 152 133 112 95 82 65 44 27 20 11 360 354 350 344 341 340 334 333 329 325 320
173 240 253 250 227 222 237 234 214 245 241 225 215 213 208 208 205 200 202 199 196 192 186 177 180 177 170 162 148 132 122 109 82 59 38 27 13 4 352 342 339 337 337 336 331 332 328 324 320
344 283 253 225 218 235 207 259 233 248 189 220 220 225 220 217 206 210 204 200 192 191 183 184 179 177 176 162 145 140 122 122 118 84 47 20 1 347 345 342 340 337 330 328 331 330 324 318 318
243 259 250 148 174 177 208 277 238 214 206 237 233 226 221 219 215 215 209 205 197 191 188 183 180 180 177 165 160 163 168 158 154 122 244 301 341 347 341 337 333 330 327 330 330 328 325 322 317
218 269 228 271 202 150 211 277 253 186 229 255 248 233 227 225 218 216 209 204 197 193 187 186 187 184 178 173 175 185 187 193 189 227 281 331 334 340 329 322 320 316 317 320 322 322 321 317 314
270 249 247 253 183 215 219 255 271 261 244 261 264 255 240 228 221 213 206 203 197 194 190 187 186 185 181 178 186 193 200 208 233 233 247 256 288 307 313 313 311 303 301 306 317 313 316 309 312
269 260 266 267 196 235 250 256 271 282 274 262 267 259 248 238 232 213 204 199 195 193 191 192 187 188 182 185 189 206 211 198 227 224 245 248 285 303 315 305 296 294 302 310 309 312 317 321 330
237 259 264 283 199 213 273 269 272 266 266 266 268 265 256 246 231 212 202 199 198 192 194 194 193 189 191 190 190 187 187 217 253 258 256 265 299 307 300 291 288 292 301 301 307 318 318 316 339
234 238 258 260 313 226 283 271 245 259 254 272 263 258 257 236 226 208 202 202 199 197 195 195 194 191 191 187 172 166 197 246 246 239 256 291 294 287 278 280 284 295 295 298 307 316 316 309 310
243 234 248 268 285 275 2 289 277 272 264 249 270 256 240 225 218 203 202 204 204 201 193 193 193 190 189 184 186 196 208 224 226 262 277 277 273 281 283 291 295 301 298 293 298 299 294 295 296
244 111 181 201 250 304 252 269 274 134 251 259 263 266 229 226 206 199 202 206 205 196 193 191 190 190 186 187 196 199 213 230 243 259 274 280 295 305 304 290 289 285 285 286 289 291 289 284 282
135 119 161 162 251 255 257 232 260 190 212 244 258 265 210 195 200 202 197 199 201 195 194 194 192 192 188 190 197 203 210 214 226 236 257 285 296 278 265 269 279 279 280 283 288 289 284 280 276
193 180 285 257 238 267 131 255 263 277 237 236 250 265 164 182 188 191 191 194 193 194 193 196 193 196 190 193 197 202 210 214 230 241 244 255 263 268 272 273 278 280 285 288 287 283 278 276 275
186 215 204 274 282 289 109 251 276 229 245 251 277 261 207 208 208 206 201 197 195 194 195 196 196 196 193 193 195 198 201 209 220 229 238 253 257 269 278 278 280 281 286 287 286 281 277 277 275
157 197 318 283 100 286 256 258 229 203 238 242 251 258 252 228 214 212 204 205 198 198 200 199 196 194 194 192 191 190 193 205 219 232 240 250 256 266 276 276 280 289 287 285 283 277 276 275 274
217 118 136 198 271 270 280 290 284 234 239 234 247 240 253 220 212 212 207 207 208 206 201 201 198 194 189 187 185 185 190 202 219 228 236 249 264 265 270 282 290 291 290 287 283 280 278 276 274
177 202 203 272 226 266 281 271 148 161 151 203 224 236 252 242 229 214 210 209 210 208 203 200 196 191 182 180 175 179 187 201 217 233 246 254 267 275 286 298 295 289 286 282 280 279 282 281 280
314 233 207 225 224 236 267 273 113 249 210 232 244 265 258 237 218 212 207 206 209 206 201 201 192 186 177 169 172 179 184 200 218 234 246 260 276 288 295 292 289 288 288 286 283 284 283 284 284